GW3504 Weather Reports


Display with metric or nautical units.
time (UTC)temp
F
wind
direction
speed
MPH
gust
MPH
rain 1hr
in
rain 24hr
in
rain mn
in
humidity
%
barometer
mb
20260906000530 96 0 0.0 0.0 0.00 0.00 0.00 44 1012.5
20260906000042 96 0 0.0 0.0 0.00 0.00 0.00 44 1012.4
20260905235524 96 0 0.0 1.0 0.00 0.00 0.00 43 1012.4
20260905235026 96 0 0.0 1.0 0.00 0.00 0.00 42 1012.4
20260905234541 97 0 0.0 0.0 0.00 0.00 0.00 42 1012.4
20260905234028 97 0 0.0 0.0 0.00 0.00 0.00 42 1012.4
20260905233524 97 0 0.0 1.0 0.00 0.00 0.00 41 1012.5
20260905233103 97 0 0.0 3.0 0.00 0.00 0.00 41 1012.5
20260905232526 97 0 0.0 7.0 0.00 0.00 0.00 40 1012.6
20260905232025 97 133 1.0 8.0 0.00 0.00 0.00 40 1012.5
20260905231553 98 163 1.0 8.0 0.00 0.00 0.00 40 1012.4
20260905231025 98 96 2.0 6.0 0.00 0.00 0.00 39 1012.4
20260905230531 98 110 0.0 6.0 0.00 0.00 0.00 39 1012.3
20260905230051 99 141 2.0 6.0 0.00 0.00 0.00 38 1012.3
20260905225522 99 0 1.0 6.0 0.00 0.00 0.00 38 1012.2
20260905225023 99 0 2.0 8.0 0.00 0.00 0.00 38 1012.2
20260905224605 99 175 3.0 8.0 0.00 0.00 0.00 37 1012.2
20260905224025 99 155 3.0 9.0 0.00 0.00 0.00 38 1012.3
20260905223525 99 162 3.0 9.0 0.00 0.00 0.00 38 1012.3
20260905223041 99 109 3.0 8.0 0.00 0.00 0.00 38 1012.4
20260905222529 99 0 2.0 6.0 0.00 0.00 0.00 38 1012.5
20260905222026 99 175 0.0 7.0 0.00 0.00 0.00 38 1012.5
20260905221546 99 120 2.0 7.0 0.00 0.00 0.00 37 1012.5
20260905221028 100 166 1.0 6.0 0.00 0.00 0.00 36 1012.7
20260905220525 100 89 1.0 8.0 0.00 0.00 0.00 37 1012.7
20260905220048 99 172 2.0 8.0 0.00 0.00 0.00 36 1012.7
20260905215523 100 96 1.0 9.0 0.00 0.00 0.00 36 1012.7
20260905215024 99 108 1.0 9.0 0.00 0.00 0.00 37 1012.8
20260905214549 100 85 3.0 9.0 0.00 0.00 0.00 36 1012.8
20260905214023 99 139 2.0 7.0 0.00 0.00 0.00 37 1012.8
20260905213526 100 163 3.0 7.0 0.00 0.00 0.00 35 1012.9
20260905213048 100 155 1.0 6.0 0.00 0.00 0.00 36 1012.9
20260905212525 100 0 0.0 6.0 0.00 0.00 0.00 36 1012.9
20260905212029 99 0 2.0 6.0 0.00 0.00 0.00 37 1013.0
20260905211543 101 157 1.0 7.0 0.00 0.00 0.00 35 1013.0
20260905211025 100 0 2.0 7.0 0.00 0.00 0.00 37 1013.1
20260905210529 100 0 1.0 6.0 0.00 0.00 0.00 36 1013.1
20260905210042 101 175 2.0 7.0 0.00 0.00 0.00 36 1013.1
20260905205524 100 50 0.0 7.0 0.00 0.00 0.00 38 1013.3
20260905205023 100 107 2.0 7.0 0.00 0.00 0.00 38 1013.3
20260905204547 99 111 0.0 7.0 0.00 0.00 0.00 38 1013.3
20260905204025 99 163 3.0 9.0 0.00 0.00 0.00 38 1013.5
20260905203524 100 174 2.0 9.0 0.00 0.00 0.00 37 1013.6
20260905203043 101 177 2.0 9.0 0.00 0.00 0.00 37 1013.6
20260905202524 100 0 3.0 7.0 0.00 0.00 0.00 37 1013.7
20260905202024 100 180 0.0 3.0 0.00 0.00 0.00 38 1013.8
20260905201542 100 0 0.0 7.0 0.00 0.00 0.00 39 1013.9
20260905201024 99 311 1.0 7.0 0.00 0.00 0.00 37 1014.0
20260905200524 99 167 2.0 5.0 0.00 0.00 0.00 39 1014.1
20260905200049 99 0 1.0 8.0 0.00 0.00 0.00 39 1014.1
20260905195524 99 210 1.0 8.0 0.00 0.00 0.00 40 1014.1
20260905195028 98 103 2.0 8.0 0.00 0.00 0.00 40 1014.3
20260905194550 99 84 0.0 8.0 0.00 0.00 0.00 40 1014.3
20260905194025 99 92 2.0 9.0 0.00 0.00 0.00 39 1014.5
20260905193526 99 0 3.0 10.0 0.00 0.00 0.00 40 1014.5
20260905193046 98 155 5.0 10.0 0.00 0.00 0.00 39 1014.5
20260905192527 99 169 4.0 10.0 0.00 0.00 0.00 39 1014.5
20260905192026 99 13 1.0 6.0 0.00 0.00 0.00 40 1014.5
20260905191548 100 0 1.0 6.0 0.00 0.00 0.00 39 1014.5
20260905191023 99 139 2.0 7.0 0.00 0.00 0.00 39 1014.5
20260905190529 99 153 1.0 7.0 0.00 0.00 0.00 39 1014.6
20260905190100 99 260 1.0 9.0 0.00 0.00 0.00 38 1014.6
20260905185524 99 165 1.0 9.0 0.00 0.00 0.00 39 1014.6
20260905185024 99 0 2.0 8.0 0.00 0.00 0.00 41 1014.6
20260905184609 98 0 1.0 5.0 0.00 0.00 0.00 43 1014.6
20260905184024 96 149 1.0 8.0 0.00 0.00 0.00 43 1014.8
20260905183528 97 271 2.0 11.0 0.00 0.00 0.00 43 1015.0
20260905183047 98 164 3.0 11.0 0.00 0.00 0.00 42 1015.1
20260905182526 98 98 1.0 10.0 0.00 0.00 0.00 41 1015.1
20260905182025 98 112 4.0 10.0 0.00 0.00 0.00 41 1015.2
20260905181542 98 0 2.0 9.0 0.00 0.00 0.00 42 1015.3
20260905181025 98 234 4.0 9.0 0.00 0.00 0.00 43 1015.3
20260905180526 97 0 0.0 5.0 0.00 0.00 0.00 43 1015.3
20260905180050 97 96 0.0 8.0 0.00 0.00 0.00 46 1015.5
20260905175524 96 0 0.0 8.0 0.00 0.00 0.00 47 1015.4
20260905175025 97 179 1.0 9.0 0.00 0.00 0.00 46 1015.6
20260905174555 96 273 1.0 9.0 0.00 0.00 0.00 45 1015.7
20260905174024 96 190 3.0 9.0 0.00 0.00 0.00 46 1015.8
20260905173525 96 117 2.0 9.0 0.00 0.00 0.00 46 1015.8
20260905173051 96 205 1.0 7.0 0.00 0.00 0.00 47 1015.9
20260905172524 95 69 3.0 7.0 0.00 0.00 0.00 46 1015.9
20260905172026 95 0 3.0 6.0 0.00 0.00 0.00 49 1015.9
20260905171548 94 127 1.0 6.0 0.00 0.00 0.00 49 1016.0
20260905171026 94 98 1.0 6.0 0.00 0.00 0.00 50 1016.0
20260905170525 94 148 2.0 6.0 0.00 0.00 0.00 51 1016.0
20260905170045 95 103 1.0 4.0 0.00 0.00 0.00 51 1016.1
20260905165526 94 0 1.0 4.0 0.00 0.00 0.00 53 1016.1
20260905165024 94 100 0.0 4.0 0.00 0.00 0.00 52 1016.1
20260905164544 94 212 0.0 4.0 0.00 0.00 0.00 53 1016.1
20260905164025 92 0 0.0 3.0 0.00 0.00 0.00 55 1016.0
20260905163524 92 0 0.0 5.0 0.00 0.00 0.00 53 1016.1
20260905163050 92 0 0.0 5.0 0.00 0.00 0.00 55 1016.2
20260905162524 92 98 0.0 5.0 0.00 0.00 0.00 55 1016.1
20260905162025 92 0 2.0 6.0 0.00 0.00 0.00 55 1016.1
20260905161544 91 0 0.0 6.0 0.00 0.00 0.00 55 1016.1
20260905161025 91 182 2.0 6.0 0.00 0.00 0.00 56 1016.1
20260905160524 91 0 1.0 6.0 0.00 0.00 0.00 56 1016.1
20260905160047 90 104 1.0 7.0 0.00 0.00 0.00 58 1016.0
20260905155525 90 179 3.0 7.0 0.00 0.00 0.00 59 1016.0
20260905155023 90 0 0.0 7.0 0.00 0.00 0.00 59 1016.0
20260905154552 89 209 3.0 7.0 0.00 0.00 0.00 60 1016.0
20260905154023 88 180 2.0 7.0 0.00 0.00 0.00 60 1016.0
20260905153525 88 128 2.0 7.0 0.00 0.00 0.00 62 1015.9
20260905153046 87 215 3.0 9.0 0.00 0.00 0.00 62 1015.9
20260905152525 87 167 3.0 9.0 0.00 0.00 0.00 62 1015.8
20260905152025 88 0 0.0 6.0 0.00 0.00 0.00 59 1015.8
20260905151544 87 0 1.0 6.0 0.00 0.00 0.00 62 1015.7
20260905151027 87 163 1.0 4.0 0.00 0.00 0.00 61 1015.7
20260905150528 87 111 0.0 4.0 0.00 0.00 0.00 62 1015.7
20260905150043 86 0 2.0 5.0 0.00 0.00 0.00 63 1015.7
20260905145525 85 0 1.0 5.0 0.00 0.00 0.00 62 1015.7
20260905145024 86 155 2.0 4.0 0.00 0.00 0.00 63 1015.6
20260905144549 85 0 1.0 4.0 0.00 0.00 0.00 65 1015.5
20260905144025 84 166 2.0 5.0 0.00 0.00 0.00 64 1015.6
20260905143524 84 0 1.0 5.0 0.00 0.00 0.00 64 1015.6
20260905143046 85 0 0.0 3.0 0.00 0.00 0.00 65 1015.5
20260905142524 84 0 0.0 3.0 0.00 0.00 0.00 64 1015.5
20260905142025 84 0 0.0 2.0 0.00 0.00 0.00 64 1015.5
20260905141556 84 0 0.0 0.0 0.00 0.00 0.00 64 1015.5
20260905141023 83 0 0.0 0.0 0.00 0.00 0.00 66 1015.4
20260905140525 83 0 0.0 0.0 0.00 0.00 0.00 67 1015.4
20260905140050 82 0 0.0 0.0 0.00 0.00 0.00 67 1015.3
20260905135525 82 0 0.0 0.0 0.00 0.00 0.00 68 1015.4
20260905135024 82 0 0.0 0.0 0.00 0.00 0.00 68 1015.4
20260905134602 81 0 0.0 0.0 0.00 0.00 0.00 70 1015.3
20260905134025 81 0 0.0 0.0 0.00 0.00 0.00 70 1015.3
20260905133523 80 0 0.0 0.0 0.00 0.00 0.00 69 1015.3
20260905133042 80 0 0.0 0.0 0.00 0.00 0.00 70 1015.2
20260905132525 80 0 0.0 0.0 0.00 0.00 0.00 72 1015.1
20260905132022 79 0 0.0 0.0 0.00 0.00 0.00 73 1015.1
20260905131559 78 0 0.0 0.0 0.00 0.00 0.00 74 1015.1
20260905131025 77 0 0.0 0.0 0.00 0.00 0.00 77 1015.0
20260905130524 76 0 0.0 0.0 0.00 0.00 0.00 79 1014.9
20260905130045 75 0 0.0 0.0 0.00 0.00 0.00 80 1015.0
20260905125525 75 0 0.0 0.0 0.00 0.00 0.00 80 1014.9
20260905125025 75 0 0.0 0.0 0.00 0.00 0.00 79 1014.9
20260905124548 75 0 0.0 0.0 0.00 0.00 0.00 80 1014.7
20260905124025 74 0 0.0 0.0 0.00 0.00 0.00 80 1014.6
20260905123524 74 0 0.0 0.0 0.00 0.00 0.00 80 1014.6
20260905123053 74 0 0.0 0.0 0.00 0.00 0.00 80 1014.5
20260905122528 74 0 0.0 0.0 0.00 0.00 0.00 80 1014.5
20260905122025 74 0 0.0 0.0 0.00 0.00 0.00 80 1014.5
20260905121550 74 0 0.0 0.0 0.00 0.00 0.00 80 1014.3
20260905121024 74 0 0.0 0.0 0.00 0.00 0.00 80 1014.2
20260905120525 74 0 0.0 0.0 0.00 0.00 0.00 80 1014.1
20260905120050 74 0 0.0 0.0 0.00 0.00 0.00 80 1014.1
20260905115521 74 0 0.0 0.0 0.00 0.00 0.00 80 1014.1
20260905115026 74 0 0.0 0.0 0.00 0.00 0.00 80 1014.1
20260905114550 74 0 0.0 0.0 0.00 0.00 0.00 80 1014.0
20260905114026 74 0 0.0 0.0 0.00 0.00 0.00 81 1013.9
20260905113523 74 0 0.0 0.0 0.00 0.00 0.00 81 1013.9
20260905113046 74 0 0.0 0.0 0.00 0.00 0.00 81 1013.8
20260905112523 74 0 0.0 1.0 0.00 0.00 0.00 81 1013.9
20260905112023 74 0 0.0 2.0 0.00 0.00 0.00 81 1013.8
20260905111553 74 0 0.0 3.0 0.00 0.00 0.00 81 1013.8
20260905111028 74 0 0.0 3.0 0.00 0.00 0.00 82 1014.0
20260905110524 73 0 0.0 0.0 0.00 0.00 0.00 83 1013.9
20260905110044 73 0 0.0 0.0 0.00 0.00 0.00 83 1013.8
20260905105521 73 0 0.0 0.0 0.00 0.00 0.00 83 1013.8
20260905105025 74 0 0.0 0.0 0.00 0.00 0.00 83 1013.8
20260905104540 74 0 0.0 0.0 0.00 0.00 0.00 83 1013.8
20260905104028 74 0 0.0 0.0 0.00 0.00 0.00 83 1013.7
20260905103525 74 0 0.0 0.0 0.00 0.00 0.00 83 1013.8
20260905103048 74 0 0.0 0.0 0.00 0.00 0.00 83 1013.8
20260905102525 74 0 0.0 0.0 0.00 0.00 0.00 83 1013.8
20260905102025 74 0 0.0 0.0 0.00 0.00 0.00 83 1013.8
20260905101552 74 0 0.0 0.0 0.00 0.00 0.00 83 1013.8
20260905101024 74 0 0.0 0.0 0.00 0.00 0.00 83 1013.7
20260905100523 74 0 0.0 0.0 0.00 0.00 0.00 83 1013.6
20260905100044 75 0 0.0 0.0 0.00 0.00 0.00 83 1013.7
20260905095524 75 0 0.0 0.0 0.00 0.00 0.00 83 1013.8
20260905095024 75 0 0.0 0.0 0.00 0.00 0.00 82 1013.8
20260905094552 75 0 0.0 0.0 0.00 0.00 0.00 82 1013.8
20260905094025 75 0 0.0 0.0 0.00 0.00 0.00 82 1013.9
20260905093523 75 0 0.0 0.0 0.00 0.00 0.00 81 1013.9
20260905093047 75 0 0.0 0.0 0.00 0.00 0.00 79 1013.9
20260905092524 75 0 0.0 0.0 0.00 0.00 0.00 79 1013.8
20260905092026 75 0 0.0 0.0 0.00 0.00 0.00 78 1013.9
20260905091547 75 0 0.0 0.0 0.00 0.00 0.00 78 1014.0
20260905091025 75 0 0.0 0.0 0.00 0.00 0.00 78 1014.0
20260905090524 75 0 0.0 0.0 0.00 0.00 0.00 77 1014.1
20260905090049 76 0 0.0 0.0 0.00 0.00 0.00 77 1014.0
20260905085523 76 0 0.0 0.0 0.00 0.00 0.00 76 1014.0
20260905085022 76 0 0.0 0.0 0.00 0.00 0.00 76 1013.9
20260905084601 76 0 0.0 0.0 0.00 0.00 0.00 76 1013.9
20260905084024 76 0 0.0 0.0 0.00 0.00 0.00 76 1013.8
20260905083524 76 0 0.0 0.0 0.00 0.00 0.00 75 1013.8
20260905083044 76 0 0.0 0.0 0.00 0.00 0.00 75 1013.9
20260905082524 76 0 0.0 0.0 0.00 0.00 0.00 75 1013.9
20260905082027 77 0 0.0 0.0 0.00 0.00 0.00 74 1013.9
20260905081544 77 0 0.0 0.0 0.00 0.00 0.00 74 1013.8
20260905081027 77 0 0.0 0.0 0.00 0.00 0.00 73 1013.8
20260905080524 77 0 0.0 0.0 0.00 0.00 0.00 73 1013.8
20260905080050 77 0 0.0 0.0 0.00 0.00 0.00 73 1013.8
20260905075528 77 0 0.0 0.0 0.00 0.00 0.00 72 1013.8
20260905075024 77 0 0.0 0.0 0.00 0.00 0.00 72 1013.8
20260905074544 78 0 0.0 0.0 0.00 0.00 0.00 72 1013.8
20260905074024 78 0 0.0 0.0 0.00 0.00 0.00 72 1013.9
20260905073525 78 0 0.0 0.0 0.00 0.00 0.00 72 1013.9
20260905073047 78 0 0.0 0.0 0.00 0.00 0.00 72 1013.9
20260905072525 78 0 0.0 0.0 0.00 0.00 0.00 72 1013.9
20260905072023 78 0 0.0 0.0 0.00 0.00 0.00 72 1013.9
20260905071544 78 0 0.0 0.0 0.00 0.00 0.00 72 1014.0
20260905071024 78 0 0.0 0.0 0.00 0.00 0.00 71 1013.9
20260905070524 78 0 0.0 0.0 0.00 0.00 0.00 71 1014.0
20260905070043 79 0 0.0 0.0 0.00 0.00 0.00 71 1014.0
20260905065522 79 0 0.0 0.0 0.00 0.00 0.00 70 1014.0
20260905065023 79 0 0.0 0.0 0.00 0.00 0.00 70 1014.0
20260905064548 79 0 0.0 0.0 0.00 0.00 0.00 70 1014.0
20260905064023 79 0 0.0 0.0 0.00 0.00 0.00 70 1014.0
20260905063529 79 0 0.0 0.0 0.00 0.00 0.00 70 1014.1
20260905063049 79 0 0.0 0.0 0.00 0.00 0.00 70 1014.0
20260905062529 79 0 0.0 0.0 0.00 0.00 0.00 70 1014.0
20260905062026 79 0 0.0 0.0 0.00 0.00 0.00 69 1014.1
20260905061541 79 0 0.0 0.0 0.00 0.00 0.00 69 1014.1
20260905061023 80 0 0.0 0.0 0.00 0.00 0.00 69 1014.1
20260905060524 80 0 0.0 0.0 0.00 0.00 0.00 69 1014.1
20260905060044 79 0 0.0 0.0 0.00 0.00 0.00 69 1014.1
20260905055526 80 0 0.0 0.0 0.00 0.00 0.00 70 1014.2
20260905055023 80 0 0.0 0.0 0.00 0.00 0.00 69 1014.1
20260905054551 80 0 0.0 1.0 0.00 0.00 0.00 68 1014.1
20260905054023 80 0 0.0 1.0 0.00 0.00 0.00 68 1014.1
20260905053524 80 0 0.0 0.0 0.00 0.00 0.00 68 1014.0
20260905053052 80 0 0.0 0.0 0.00 0.00 0.00 68 1013.9
20260905052527 80 0 0.0 0.0 0.00 0.00 0.00 68 1013.9
20260905052025 81 0 0.0 0.0 0.00 0.00 0.00 67 1013.9
20260905051542 81 0 0.0 0.0 0.00 0.00 0.00 67 1014.0
20260905051024 81 0 0.0 0.0 0.00 0.00 0.00 67 1013.9
20260905050526 81 0 0.0 0.0 0.00 0.00 0.00 66 1014.0
20260905050046 81 0 0.0 0.0 0.00 0.00 0.00 66 1014.0
20260905045524 81 0 0.0 0.0 0.00 0.00 0.00 66 1014.0
20260905045023 81 0 0.0 0.0 0.00 0.00 0.00 65 1014.1
20260905044548 82 0 0.0 0.0 0.00 0.00 0.00 65 1014.1
20260905044025 82 0 0.0 0.0 0.00 0.00 0.00 65 1014.0
20260905043524 82 0 0.0 0.0 0.00 0.00 0.00 65 1014.1
20260905043048 82 0 0.0 0.0 0.00 0.00 0.00 65 1014.1
20260905042524 82 0 0.0 0.0 0.00 0.00 0.00 65 1014.1
20260905042040 83 0 0.0 0.0 0.00 0.00 0.00 65 1014.1
20260905041545 83 0 0.0 0.0 0.00 0.00 0.00 64 1014.1
20260905041029 83 0 0.0 0.0 0.00 0.00 0.00 64 1014.0
20260905040525 84 0 0.0 1.0 0.00 0.00 0.00 63 1014.1
20260905040048 84 0 0.0 1.0 0.00 0.00 0.00 62 1014.0
20260905035522 84 0 0.0 3.0 0.00 0.00 0.00 62 1013.8
20260905035024 84 0 0.0 4.0 0.00 0.00 0.00 62 1013.8
20260905034549 84 0 0.0 4.0 0.00 0.00 0.00 62 1013.8
20260905034023 84 0 0.0 2.0 0.00 0.00 0.00 62 1013.8
20260905033523 84 0 0.0 2.0 0.00 0.00 0.00 62 1013.8
20260905033042 84 0 0.0 2.0 0.00 0.00 0.00 62 1013.9
20260905032523 84 0 0.0 2.0 0.00 0.00 0.00 62 1013.7
20260905032024 85 0 0.0 0.0 0.00 0.00 0.00 62 1013.7
20260905031542 85 0 0.0 0.0 0.00 0.00 0.00 62 1013.8
20260905031025 84 0 0.0 0.0 0.00 0.00 0.00 62 1013.7
20260905030525 84 0 0.0 0.0 0.00 0.00 0.00 62 1013.7
20260905030049 85 0 0.0 0.0 0.00 0.00 0.00 63 1013.7
20260905025523 85 0 0.0 0.0 0.00 0.00 0.00 62 1013.7
20260905025024 85 0 0.0 0.0 0.00 0.00 0.00 62 1013.6
20260905024613 85 0 0.0 0.0 0.00 0.00 0.00 62 1013.6
20260905024025 85 0 0.0 0.0 0.00 0.00 0.00 61 1013.5
20260905023524 85 0 0.0 0.0 0.00 0.00 0.00 61 1013.5
20260905023045 86 0 0.0 0.0 0.00 0.00 0.00 60 1013.5
20260905022523 86 0 0.0 0.0 0.00 0.00 0.00 60 1013.4
20260905022026 86 0 0.0 0.0 0.00 0.00 0.00 59 1013.3
20260905021543 86 0 0.0 0.0 0.00 0.00 0.00 58 1013.3
20260905021024 87 0 0.0 0.0 0.00 0.00 0.00 58 1013.2
20260905020523 87 0 0.0 0.0 0.00 0.00 0.00 58 1013.1
20260905020051 87 0 0.0 0.0 0.00 0.00 0.00 57 1013.1
20260905015523 88 0 0.0 0.0 0.00 0.00 0.00 57 1012.9
20260905015024 88 0 0.0 1.0 0.00 0.00 0.00 56 1012.8
20260905014545 88 0 0.0 1.0 0.00 0.00 0.00 55 1012.7
20260905014025 88 0 0.0 0.0 0.00 0.00 0.00 55 1012.8
20260905013526 88 0 0.0 0.0 0.00 0.00 0.00 55 1012.7
20260905013052 89 0 0.0 0.0 0.00 0.00 0.00 55 1012.6
20260905012523 89 0 0.0 0.0 0.00 0.00 0.00 55 1012.6
20260905012022 89 0 0.0 0.0 0.00 0.00 0.00 54 1012.4
20260905011556 89 0 0.0 0.0 0.00 0.00 0.00 53 1012.4
20260905011025 90 0 0.0 0.0 0.00 0.00 0.00 54 1012.4
20260905010522 90 0 0.0 0.0 0.00 0.00 0.00 53 1012.4
20260905010046 91 0 0.0 0.0 0.00 0.00 0.00 52 1012.4
20260905005525 91 0 0.0 0.0 0.00 0.00 0.00 51 1012.3
20260905005024 92 0 0.0 0.0 0.00 0.00 0.00 51 1012.3
20260905004550 92 0 0.0 0.0 0.00 0.00 0.00 50 1012.4
20260905004024 93 0 0.0 0.0 0.00 0.00 0.00 49 1012.4
20260905003524 93 0 0.0 0.0 0.00 0.00 0.00 49 1012.4
20260905003051 93 0 0.0 1.0 0.00 0.00 0.00 48 1012.5
20260905002522 94 0 0.0 2.0 0.00 0.00 0.00 48 1012.4
20260905002024 94 0 0.0 2.0 0.00 0.00 0.00 47 1012.4
20260905001547 94 0 0.0 2.0 0.00 0.00 0.00 47 1012.4
20260905001024 95 0 0.0 2.0 0.00 0.00 0.00 47 1012.4